Lid_Strength_Index
2 2 2 2 2 2 2 2 2 1 1 1 1 1 2 3 3 4 4 2 1 -0 -1 0 0 1 1 1 1 1 2 2 2 2 2 2 1 1 1 2 1 1 1
2 2 2 2 2 2 2 2 2 2 2 1 0 0 1 2 3 4 5 4 1 -0 1 1 1 1 1 1 1 1 2 2 2 2 2 1 1 1 2 2 2 2 2
2 2 2 2 2 2 2 2 2 2 2 0 0 0 0 2 3 5 6 6 4 2 3 3 2 2 2 1 1 2 2 2 3 2 2 2 2 2 2 2 2 2 2
1 1 1 2 1 2 2 2 2 2 3 3 2 1 2 2 3 5 6 7 6 6 5 5 4 3 3 2 2 2 2 2 2 3 2 2 2 3 3 3 3 2 2
1 1 1 1 2 2 2 2 2 3 3 3 2 1 2 5 8 8 8 7 6 7 8 6 6 6 4 3 3 2 2 3 3 3 3 2 3 3 3 3 3 3 3
1 2 2 2 2 2 2 3 3 2 2 3 2 2 3 5 8 10 9 8 8 8 10 11 11 9 6 4 4 3 3 3 3 3 3 3 3 3 3 3 3 3 3
1 2 2 2 2 3 2 2 3 3 3 2 2 3 3 5 9 10 10 9 9 10 12 12 12 12 11 6 5 4 4 3 3 3 3 3 4 4 4 4 4 4 4
1 1 2 2 2 3 3 3 3 3 3 2 3 4 5 6 8 10 10 9 11 11 12 12 12 13 13 12 8 6 5 4 3 4 4 4 4 4 4 4 4 4 4
1 1 1 1 2 2 2 3 3 3 3 2 2 4 6 6 8 10 12 11 11 12 13 12 12 13 13 12 11 9 6 5 4 5 4 5 4 4 5 4 4 4 4
1 1 1 1 1 2 2 2 2 2 2 3 3 3 4 6 8 11 12 12 11 12 13 13 13 12 13 12 10 8 7 7 6 6 5 5 5 5 5 5 5 5 5
0 1 1 2 2 2 2 2 3 2 1 2 3 4 5 7 8 10 14 15 13 12 13 13 13 13 13 13 12 9 7 7 7 6 6 7 6 6 5 5 5 5 5
1 0 1 1 2 2 2 2 2 2 2 1 2 4 5 6 8 10 12 15 14 13 13 13 13 13 13 13 10 9 8 7 7 7 8 7 8 7 6 6 6 6 6
1 1 1 2 2 2 2 2 2 2 2 1 2 4 5 6 7 9 11 13 15 13 13 13 13 13 12 13 12 10 9 8 8 8 8 8 8 8 7 7 6 6 6
1 1 1 1 1 2 2 3 2 2 2 2 2 4 5 6 9 10 11 14 15 15 13 14 13 13 13 13 12 10 10 9 8 8 8 9 9 8 8 7 7 7 7
1 1 1 1 1 2 3 3 3 3 2 2 3 4 5 7 9 10 10 11 13 16 15 15 16 14 13 12 11 12 12 9 9 9 9 9 9 9 9 8 8 8 8
1 2 2 2 2 2 3 3 3 2 3 3 4 6 8 10 10 11 11 12 14 16 16 14 14 13 13 12 11 13 12 10 10 10 10 10 10 10 9 9 9 9 9
1 2 2 2 2 2 2 3 3 4 5 4 8 8 8 12 12 14 13 14 14 14 15 16 15 14 14 13 13 13 12 12 12 11 11 10 10 10 10 10 10 10 10
2 2 2 2 3 3 3 4 4 5 6 7 9 10 11 13 14 13 13 14 13 14 14 16 15 15 14 13 13 14 13 13 13 12 10 10 10 10 10 10 10 10 10
3 3 3 3 3 3 4 5 4 6 7 7 8 11 12 13 14 14 13 14 14 14 14 16 17 16 14 14 14 14 14 14 13 12 10 10 10 10 10 10 10 10 10
3 3 3 3 4 5 6 6 6 7 8 8 9 9 10 12 12 13 14 14 14 15 15 16 17 16 16 15 15 15 16 15 15 13 12 12 11 11 10 10 10 11 10
6 6 6 7 7 7 7 7 7 7 8 9 10 11 11 12 12 13 14 14 14 15 15 16 16 16 17 16 15 15 15 15 16 15 16 16 15 15 13 11 11 11 10
10 11 11 11 10 8 9 10 9 9 11 11 13 13 14 15 13 12 12 12 14 14 15 16 16 15 16 16 16 15 16 17 18 17 18 17 14 16 16 15 12 10 10
11 11 11 11 11 10 10 10 11 11 12 13 13 14 14 15 13 14 12 12 13 12 13 14 14 15 16 15 15 17 16 17 17 16 16 16 17 16 16 14 11 10 10
12 12 11 11 11 12 10 9 11 12 12 13 13 13 15 14 13 14 14 14 14 14 14 14 14 15 14 14 14 15 15 16 16 15 15 18 16 17 16 15 10 10 10
13 13 14 13 13 13 11 10 11 13 14 14 14 13 13 14 13 12 13 14 14 15 13 12 13 12 12 12 13 15 17 18 18 17 16 17 16 16 16 16 14 10 9
14 14 14 14 13 13 11 10 12 13 14 15 14 14 14 13 12 12 14 14 15 15 15 16 15 13 12 13 12 13 14 17 18 18 15 16 16 15 17 16 15 15 12